GFSSE_sfc_30mbdewp_273.txt.gz
Dewpoint
67 71 75 74 74 75 74 74 74 74 73 73 73 72 72 72 72 71 71 72 72 72 72 72 71 72 72 72 72 72 72 70 70 72 72 72 70 69 69 70 70 67 71
66 70 75 75 74 74 75 75 75 74 73 73 73 73 72 73 71 71 72 72 72 72 72 72 72 72 73 72 72 72 72 69 71 72 72 72 72 71 69 71 71 71 72
66 70 73 75 75 74 75 75 74 74 73 73 73 73 73 71 71 73 71 72 72 72 73 72 72 72 72 72 71 70 70 68 71 72 71 66 70 71 68 72 71 71 72
65 68 71 75 75 74 74 75 74 73 73 73 73 72 72 72 73 72 72 72 72 72 72 72 72 72 71 71 71 70 67 67 70 71 68 63 67 71 68 71 71 72 72
65 66 72 75 75 74 74 74 74 73 73 73 72 72 73 72 71 72 72 72 72 72 71 72 72 72 72 72 72 71 68 69 71 70 66 68 66 71 72 70 69 71 71
64 67 74 75 74 74 73 73 73 73 73 72 72 72 72 72 72 72 72 72 72 72 72 72 71 72 72 72 72 72 66 67 68 66 68 67 68 71 70 71 71 71 72
66 71 72 74 74 74 73 73 73 73 72 72 71 73 71 71 72 72 72 71 72 72 72 72 72 71 71 72 72 71 68 68 62 64 68 68 70 71 71 72 72 72 72
68 67 70 73 73 73 73 73 73 72 73 73 72 73 72 71 70 71 70 71 71 71 71 71 71 71 71 71 72 72 70 70 60 64 64 67 71 71 71 71 72 72 72
64 65 69 70 71 72 72 73 72 72 72 73 73 72 73 72 70 71 70 70 70 71 71 71 71 71 71 70 71 69 70 70 60 61 63 66 72 71 71 69 70 72 72
63 65 66 68 69 68 71 75 73 71 70 71 73 73 73 72 71 69 70 70 70 71 71 70 70 71 71 71 71 70 70 68 63 61 68 69 72 71 70 70 71 71 72
65 64 63 65 66 66 67 73 74 74 72 71 70 73 72 68 68 70 69 68 70 70 70 70 70 70 70 70 69 70 70 68 63 63 68 70 70 71 71 71 72 71 72
63 62 62 62 62 64 62 69 73 71 70 72 66 68 70 69 68 67 68 70 70 70 70 69 69 68 68 65 66 68 66 70 68 67 66 70 70 70 69 70 71 71 72
62 60 61 61 61 61 61 65 68 70 64 64 70 67 63 67 68 65 67 65 64 70 67 70 68 65 64 66 64 67 64 68 68 69 67 71 69 69 68 68 68 70 72
61 60 60 60 62 61 61 62 62 65 63 62 65 67 65 62 65 66 67 67 62 66 65 68 69 67 69 69 63 64 64 65 67 68 69 70 70 68 68 68 68 70 71
60 60 60 61 63 63 63 62 61 64 64 61 68 67 65 64 64 66 65 63 63 65 65 64 68 65 68 70 67 69 69 67 67 68 67 68 70 70 67 66 67 68 70
59 60 60 60 63 64 63 65 63 61 62 61 66 64 65 65 65 66 67 65 63 61 62 70 69 69 68 68 69 69 70 68 67 67 67 66 70 70 69 66 67 67 69
60 60 61 62 63 64 64 65 64 62 60 61 61 65 65 66 66 67 66 66 68 67 66 68 68 67 69 70 70 70 68 70 69 69 67 66 68 70 68 65 65 67 69
60 62 63 63 62 64 63 64 64 62 61 61 61 63 65 66 68 70 69 68 70 69 70 68 69 69 69 68 68 68 69 69 69 70 66 68 67 65 68 66 67 67 69
62 62 65 66 64 64 66 64 65 64 62 60 64 61 67 66 69 71 71 70 70 69 68 70 70 69 70 70 69 69 69 70 70 70 68 68 67 63 63 67 68 68 69
64 65 66 67 67 67 67 67 65 64 62 62 63 61 68 70 69 71 70 71 71 68 68 69 69 70 70 70 69 69 69 69 69 69 69 69 66 67 66 65 65 64 70
66 67 68 69 70 68 67 68 65 63 62 63 61 65 68 70 70 70 70 71 69 71 70 69 70 67 67 70 69 68 67 68 69 68 66 70 69 65 66 68 64 63 65
65 67 70 70 71 71 69 68 68 66 66 65 62 67 71 68 69 71 70 72 69 70 70 69 68 69 69 70 65 67 65 66 69 66 68 69 68 67 66 69 66 65 64
63 67 69 71 72 72 71 70 70 68 67 66 64 66 69 71 71 71 71 72 71 71 70 69 69 71 68 68 68 67 63 61 66 69 68 69 69 69 66 67 66 67 65
64 65 68 71 72 73 73 70 70 67 65 65 64 69 69 71 70 70 70 70 71 71 68 71 71 70 69 68 68 68 68 67 63 66 68 68 70 69 67 66 65 66 63
63 64 66 71 72 73 73 73 69 69 67 66 64 66 68 71 71 69 69 69 69 69 70 69 70 69 69 70 68 68 68 68 68 64 64 65 68 69 70 68 66 64 62
61 63 64 69 72 73 73 73 72 69 70 68 67 67 68 69 71 69 69 69 69 68 69 70 71 70 70 70 71 70 68 67 67 65 63 64 64 66 69 67 66 61 65

GFSSE_sfc_30mbdewp_276.txt.gz
Dewpoint
69 72 75 75 75 74 74 74 74 74 73 73 73 72 72 72 71 71 71 72 72 72 72 71 72 72 72 72 73 72 70 73 72 73 70 69 70 71 72 70 69 71 72
69 72 75 75 75 75 75 75 74 74 73 73 73 72 72 71 71 72 72 72 72 72 72 71 72 71 72 72 73 71 69 73 73 72 71 71 70 71 71 71 71 72 72
69 72 73 75 75 76 75 75 74 74 73 73 73 73 72 71 72 72 71 71 72 72 72 72 72 72 71 72 71 70 69 73 72 72 71 69 69 72 71 72 72 72 72
69 70 72 76 75 76 76 75 75 74 73 74 73 72 71 73 72 72 71 71 72 72 72 72 72 72 71 71 69 68 68 72 70 70 69 68 65 71 72 71 72 72 73
67 69 74 76 75 75 75 75 75 74 73 74 73 72 73 71 71 72 71 71 72 72 72 72 72 72 72 72 71 67 69 71 69 71 69 69 68 69 71 71 72 72 72
65 70 75 75 75 75 75 75 74 74 74 73 72 73 72 72 72 72 72 72 72 72 71 72 72 71 71 72 72 68 68 71 70 70 70 70 69 71 70 72 71 72 72
69 71 73 75 74 74 74 74 74 73 73 72 72 73 71 73 72 72 71 72 72 72 72 72 72 72 72 72 70 65 66 68 68 68 70 71 72 72 72 71 72 72 72
70 69 72 75 74 74 74 74 73 73 73 72 73 72 71 71 71 72 71 71 72 71 72 72 72 72 72 72 71 70 70 70 67 68 69 71 72 72 71 72 72 72 72
68 70 71 72 73 73 73 73 73 73 73 73 73 73 72 71 71 71 71 71 71 71 71 71 71 71 71 71 72 70 69 70 68 68 69 71 73 72 71 72 72 72 72
67 68 69 70 71 71 72 72 72 72 72 72 72 72 73 72 70 70 71 70 71 71 70 71 71 71 71 71 70 69 70 70 68 66 67 71 73 71 69 70 72 72 72
65 65 66 68 69 70 73 74 73 71 70 71 73 73 73 71 71 69 69 71 70 71 70 70 70 71 71 70 70 70 69 68 68 68 69 72 73 70 71 72 71 72 72
64 62 64 66 66 66 67 74 74 74 72 70 67 73 72 70 69 69 69 69 70 70 70 70 70 70 70 68 69 70 71 69 70 70 68 72 72 70 71 71 71 72 72
60 60 63 64 65 64 66 72 73 72 71 72 71 71 70 70 70 69 70 68 69 71 70 69 69 68 66 68 67 69 70 69 69 69 69 71 71 69 70 70 71 72 72
60 59 61 62 63 62 66 67 72 70 66 65 69 71 70 70 69 67 68 68 65 69 69 70 69 68 69 68 67 67 67 70 71 69 70 70 70 69 68 69 69 71 72
60 59 59 62 63 65 65 64 64 67 66 62 69 68 70 67 67 68 68 68 68 66 68 69 69 69 69 69 69 66 67 69 69 70 67 69 70 70 68 68 68 71 71
61 58 60 63 65 65 67 65 66 68 66 67 68 69 69 67 69 67 67 67 69 67 67 69 69 68 69 69 67 68 63 69 69 68 67 68 70 70 69 67 68 69 70
62 60 61 62 64 66 67 67 68 66 66 65 68 71 68 67 68 69 69 68 68 71 69 70 69 70 69 70 70 69 68 69 68 69 69 68 70 70 69 69 69 69 70
60 62 63 61 63 66 65 68 67 65 64 63 69 69 69 70 71 69 70 69 70 71 70 69 68 68 68 69 70 70 69 68 69 69 69 68 69 66 69 69 69 70 70
61 64 64 65 64 66 66 67 66 66 64 65 66 68 70 69 71 71 70 69 70 71 70 68 69 70 68 69 68 69 69 70 70 69 68 68 67 68 67 68 68 68 69
62 65 67 67 67 69 68 67 67 65 66 64 64 66 71 69 71 72 71 70 71 70 69 70 70 69 68 69 69 69 69 70 70 70 70 70 69 66 65 66 67 68 70
64 65 68 68 69 71 70 67 66 66 64 65 64 66 71 72 72 71 71 71 71 70 69 69 69 69 66 70 69 68 68 69 69 69 69 69 69 66 66 66 66 65 68
65 66 70 70 70 72 70 69 68 67 67 68 66 64 71 71 72 72 71 72 72 71 70 69 69 69 67 70 67 66 64 66 69 67 67 69 69 68 66 67 66 64 65
64 68 71 72 71 72 71 71 71 70 70 67 66 70 72 72 70 72 72 72 72 71 71 71 69 67 67 70 69 67 63 62 65 68 67 68 69 69 69 67 67 65 65
64 68 70 72 73 73 72 71 70 69 68 67 67 67 72 71 71 73 72 71 71 70 70 70 71 71 69 67 69 69 69 67 63 64 68 68 70 69 69 68 67 67 68
64 65 69 72 73 73 73 72 72 71 69 69 68 69 70 72 72 71 72 72 72 71 71 69 70 71 70 69 69 68 68 67 67 64 63 67 69 70 69 68 67 67 66
62 65 68 71 73 74 74 74 72 71 70 69 68 68 70 70 71 72 71 71 70 69 67 69 70 70 70 70 70 69 68 66 66 66 63 65 66 69 70 69 68 66 66

GFSSE_sfc_30mbdewp_279.txt.gz
Dewpoint
72 75 76 76 75 75 75 74 73 73 73 73 72 72 72 71 71 72 73 73 72 72 72 73 73 73 72 73 70 73 72 73 72 69 71 71 72 72 72 72 72 72 72
73 75 76 76 76 76 75 75 74 73 73 73 73 72 71 71 73 72 73 73 72 72 72 73 72 72 73 73 69 73 73 73 72 70 69 70 71 72 72 72 72 72 70
73 75 76 76 76 76 75 75 74 73 73 73 73 72 71 73 72 71 72 73 73 72 73 72 72 72 73 73 68 73 72 72 72 71 70 71 71 72 72 72 72 71 73
73 74 75 76 76 76 76 75 74 73 73 73 73 72 73 72 71 71 72 72 73 72 72 72 72 72 71 70 68 71 70 70 71 70 68 69 71 72 72 72 72 71 72
71 73 75 76 76 76 76 75 75 74 74 73 72 74 72 72 71 71 71 72 72 73 72 72 71 72 72 67 68 71 72 71 70 70 68 66 71 71 72 72 72 72 73
72 74 76 76 76 76 76 76 75 74 74 73 73 72 72 72 71 72 72 72 72 73 72 72 72 72 72 69 68 71 69 65 71 70 70 71 69 71 72 72 72 72 73
73 75 75 76 76 76 76 75 75 74 73 73 73 72 73 72 72 72 72 72 72 72 72 72 72 72 72 72 68 68 70 71 70 71 71 71 72 72 72 72 72 72 72
73 74 74 75 75 75 74 74 74 73 73 73 73 71 72 72 73 72 72 72 72 72 72 72 72 72 72 71 70 70 69 70 69 71 71 72 72 72 71 72 73 73 73
72 73 74 74 74 74 75 74 73 73 72 72 73 72 71 71 71 71 71 71 71 72 72 72 72 72 72 72 71 70 69 68 69 70 71 72 73 72 71 72 72 72 73
72 72 73 73 74 74 74 73 73 73 73 73 73 73 72 71 71 71 71 72 71 71 71 71 72 71 71 71 71 69 71 71 69 69 71 73 73 71 72 72 72 73 72
70 70 71 72 72 73 73 72 72 72 73 73 72 73 73 72 70 70 71 71 71 71 71 72 71 71 71 71 70 69 70 69 70 70 71 73 73 69 71 72 72 72 73
67 68 70 71 71 71 73 73 72 70 70 72 73 73 72 71 70 69 71 71 71 71 71 70 71 71 71 70 71 71 69 67 69 70 70 72 72 70 70 72 72 72 73
66 67 68 69 68 69 73 74 74 73 72 70 70 73 72 68 70 70 70 70 70 72 70 71 70 70 70 70 69 69 70 65 64 66 69 71 73 70 71 71 72 72 72
63 66 66 67 65 66 72 73 73 73 73 72 71 71 71 69 69 69 70 69 69 70 70 70 69 69 69 69 70 70 70 68 68 67 68 71 72 71 70 71 72 72 72
61 64 65 65 64 66 70 71 72 71 69 71 71 72 70 69 69 69 69 68 68 69 70 70 70 70 69 68 68 67 69 70 70 69 69 71 71 71 70 70 71 72 72
61 61 63 64 65 67 67 67 71 70 69 67 70 69 70 69 68 68 68 67 68 68 68 70 69 69 69 69 68 68 69 70 70 69 69 69 71 71 70 70 71 71 71
61 61 62 62 64 66 67 66 68 68 67 69 69 68 70 69 67 68 68 67 70 70 70 70 69 69 70 70 68 68 68 69 70 69 68 67 70 71 71 70 71 72 72
63 62 63 62 64 64 66 68 68 69 67 68 70 71 69 68 69 69 69 69 70 70 69 69 70 70 69 69 69 69 69 69 69 69 69 68 69 70 71 70 71 71 71
63 64 64 64 63 64 65 68 65 66 67 68 70 69 68 69 69 70 69 69 69 70 70 69 69 69 69 69 70 70 70 69 69 69 69 68 68 69 69 70 70 71 70
66 65 64 65 65 65 66 67 66 64 65 68 69 69 70 70 71 70 70 69 70 68 69 70 70 70 68 70 70 70 70 70 69 69 69 69 68 68 67 68 69 69 71
64 66 67 67 67 66 67 66 66 63 64 64 67 71 70 71 72 70 70 70 71 67 69 70 70 68 68 70 69 69 69 69 70 70 70 70 68 67 66 66 67 68 67
63 66 68 67 70 68 68 66 67 68 65 64 66 70 70 71 71 71 70 71 71 70 70 69 69 69 67 70 67 66 64 66 68 70 69 68 69 68 66 67 66 65 65
64 68 69 69 69 71 70 68 70 69 70 67 67 69 72 72 72 71 71 72 71 70 70 70 69 67 67 69 68 66 63 62 66 69 67 68 68 69 68 66 66 64 63
65 67 70 69 69 71 72 69 68 66 67 68 67 70 72 71 71 72 71 72 72 70 69 70 70 68 68 67 69 69 69 67 63 63 67 67 69 69 68 68 66 64 64
64 67 72 71 70 71 71 71 70 69 68 68 69 69 72 71 71 73 72 71 71 71 70 68 69 69 69 67 67 68 68 68 68 66 63 66 68 69 69 68 67 67 65
64 67 70 72 72 71 72 71 72 71 70 70 69 69 71 71 71 71 72 71 71 71 70 70 70 69 69 70 69 68 66 66 66 66 65 65 66 68 70 69 67 67 67

GFSSE_sfc_30mbdewp_285.txt.gz
Dewpoint
72 74 74 74 73 73 73 72 72 73 72 72 71 72 72 72 72 73 73 73 72 72 72 72 72 72 72 71 71 71 70 70 72 71 72 71 71 72 71 72 72 70 69
72 74 75 74 73 73 73 73 73 73 72 72 71 71 72 73 72 73 73 72 73 73 72 72 72 71 71 72 70 69 70 71 72 72 71 71 72 72 72 72 72 72 72
73 73 75 75 74 73 73 73 73 72 72 71 72 73 72 72 73 73 72 72 73 72 72 72 72 69 73 71 68 69 71 71 72 71 71 72 72 72 70 71 71 71 72
73 74 75 75 75 73 73 73 73 73 72 72 73 72 72 72 73 73 73 73 72 73 72 72 71 69 73 72 70 70 72 72 72 72 71 71 71 71 72 71 70 71 72
73 74 74 75 75 73 73 73 73 73 72 73 72 72 71 72 72 73 73 72 72 72 71 71 71 69 71 71 72 71 71 70 71 71 71 72 72 71 73 73 72 72 73
74 74 75 75 74 73 73 73 73 73 72 74 72 72 71 71 72 72 72 72 72 72 71 70 68 69 72 71 71 71 71 70 70 70 72 72 72 71 71 72 72 73 73
73 74 74 75 75 74 73 73 73 73 72 72 72 72 72 71 71 72 72 72 72 73 72 70 68 70 72 70 70 71 72 70 69 71 71 72 72 72 71 73 72 73 73
73 74 74 75 74 74 74 74 74 73 73 72 73 72 72 72 72 72 72 72 71 72 72 71 71 71 71 71 70 70 72 70 70 70 71 72 72 73 72 72 73 73 73
74 74 74 74 74 74 74 74 74 73 73 72 73 72 72 72 72 72 72 72 72 72 72 72 71 70 68 68 70 70 70 71 71 71 72 73 73 72 71 72 72 73 72
73 74 74 74 74 74 74 74 73 72 73 72 72 72 73 72 72 72 73 72 72 72 72 72 72 70 69 70 71 71 72 72 71 71 72 72 73 72 72 73 72 72 72
72 73 73 74 74 74 74 74 73 72 74 72 71 71 72 71 71 72 72 72 72 71 71 72 72 71 71 70 71 72 72 71 71 71 72 73 72 71 72 72 73 72 72
70 72 73 73 74 73 73 73 73 72 73 73 73 72 72 71 71 71 72 72 72 71 72 72 71 71 71 71 72 71 70 70 71 71 72 73 73 71 72 72 73 72 73
70 71 72 73 73 73 73 72 72 73 73 73 73 73 72 71 71 71 72 72 71 71 71 72 71 71 70 70 70 67 69 69 70 71 72 73 72 72 72 72 72 72 73
70 71 72 72 72 72 72 72 72 71 72 72 72 73 72 70 70 70 70 71 71 71 70 70 71 71 70 69 68 68 68 67 66 68 70 73 72 71 72 72 72 73 73
69 70 71 71 71 71 72 72 71 71 71 72 71 72 72 69 69 70 70 70 70 71 70 70 70 70 69 69 68 67 67 67 66 66 67 71 72 72 71 72 72 72 73
68 69 70 70 70 70 72 72 71 71 70 70 70 71 72 70 68 70 69 69 69 70 70 69 69 69 69 69 69 69 68 68 68 68 67 68 71 72 72 71 72 71 72
68 69 69 69 69 69 72 72 72 72 71 71 70 70 70 70 68 69 69 69 69 69 70 70 70 69 69 70 68 68 69 69 69 69 68 68 71 71 71 72 72 72 72
67 68 69 69 67 68 71 72 71 70 70 71 71 71 70 70 69 69 69 68 69 69 70 70 70 69 69 69 69 68 68 69 69 69 68 68 69 71 71 71 71 72 72
67 68 68 68 66 67 70 70 70 70 69 69 69 70 70 70 69 68 68 69 70 70 69 70 69 69 69 69 69 69 68 68 68 70 69 68 68 70 70 70 70 71 71
66 68 68 68 66 66 68 67 68 69 69 69 69 69 69 70 69 68 69 69 70 69 69 69 68 69 69 68 69 69 69 69 68 69 69 69 69 68 69 69 69 70 70
66 67 67 67 66 66 67 66 66 66 67 68 69 70 69 69 69 68 68 69 70 68 69 69 69 68 68 69 68 68 69 70 69 68 70 69 68 68 68 69 69 69 69
65 65 66 66 66 66 67 66 65 66 65 66 69 70 69 69 69 68 69 69 69 68 69 69 69 68 67 70 66 66 64 66 68 69 69 69 69 68 68 67 68 68 68
64 65 65 65 65 66 67 67 67 67 66 65 66 69 69 69 70 69 69 69 69 68 68 69 69 68 66 69 68 65 62 61 65 69 69 69 69 68 67 67 67 67 67
64 65 65 65 64 65 67 66 65 65 63 64 65 68 69 69 70 69 69 69 69 69 68 69 69 68 67 66 69 68 67 65 63 63 68 68 68 68 68 67 66 66 67
65 64 64 64 64 64 66 66 66 65 65 67 66 66 69 70 70 70 69 70 70 70 69 69 69 68 68 67 67 67 67 67 67 64 63 65 67 68 68 68 66 66 66
64 64 64 65 65 65 66 67 66 65 66 66 67 67 68 70 70 70 70 70 70 70 70 69 70 69 68 67 67 67 66 66 65 66 65 65 65 66 68 68 68 66 66

GFSSE_sfc_30mbdewp_291.txt.gz
Dewpoint
67 69 73 73 72 72 73 73 73 73 73 73 73 72 72 72 72 72 72 73 72 71 72 71 69 72 72 71 72 72 72 72 72 72 72 71 72 72 70 71 68 69 71
68 69 73 73 72 72 72 73 73 73 72 73 72 72 72 73 73 72 73 73 72 71 72 72 72 71 72 70 71 72 72 72 72 72 70 72 72 70 69 71 70 70 71
68 70 72 72 73 73 73 73 72 71 72 72 72 71 72 72 73 72 72 73 73 72 72 72 71 70 71 69 70 72 72 72 72 72 71 69 70 72 71 71 72 70 70
68 69 71 73 73 73 73 73 72 71 72 72 71 71 71 73 73 72 73 73 72 72 72 70 72 70 70 70 70 72 72 72 72 72 69 68 70 72 72 72 71 71 73
68 69 71 74 74 73 73 72 72 72 72 72 72 73 73 72 72 73 72 72 72 72 70 72 71 69 69 72 72 73 72 72 73 70 69 67 66 71 72 71 72 70 68
68 69 73 74 73 72 72 72 72 72 74 73 72 72 72 72 72 72 72 72 72 72 69 72 72 70 70 71 72 73 72 73 71 71 70 71 70 72 72 71 72 73 72
68 70 72 74 73 72 73 73 72 73 73 72 71 72 72 73 72 72 72 72 72 71 70 72 71 72 72 72 72 71 72 72 70 71 69 70 71 72 72 73 72 73 73
68 69 71 74 73 73 73 73 72 73 72 73 71 71 71 72 72 72 72 72 72 70 69 72 72 71 71 72 72 72 72 71 70 71 71 68 72 72 72 73 73 73 73
69 71 72 72 73 73 72 73 73 73 72 72 72 72 72 72 73 72 72 72 72 69 69 72 71 71 72 71 73 71 70 71 70 70 69 70 73 73 72 73 73 73 73
69 70 72 72 72 72 72 74 74 72 72 73 72 72 73 72 73 72 72 72 72 71 71 72 72 71 70 71 71 71 71 71 70 70 70 70 72 73 73 73 73 72 72
69 69 71 71 72 73 73 74 73 71 72 73 72 73 73 71 71 71 72 72 72 72 72 72 70 70 71 71 71 72 71 66 68 68 69 73 73 72 72 72 72 71 71
68 69 70 70 71 71 72 73 73 71 72 70 71 71 73 72 72 71 71 72 72 72 72 71 70 71 71 70 70 72 71 69 69 70 69 73 72 72 73 73 72 72 72
67 69 70 70 72 71 71 73 71 70 73 71 72 73 71 71 71 69 72 72 72 72 71 70 70 69 70 70 69 71 71 71 69 68 69 73 72 72 72 72 71 72 73
66 68 69 70 72 71 71 72 70 70 71 72 70 73 72 70 70 70 70 70 70 72 72 70 72 71 71 71 69 71 71 71 70 70 70 73 72 72 72 72 72 73 72
66 67 69 70 72 72 72 71 70 70 69 72 72 72 71 69 68 69 69 70 70 71 71 71 71 70 70 70 69 70 69 70 69 68 67 72 72 72 73 72 73 72 72
67 68 69 71 72 72 72 72 71 71 69 71 72 71 73 69 69 68 69 69 69 70 72 70 72 71 70 70 68 68 68 69 68 69 68 67 70 72 72 72 72 72 72
67 68 69 71 71 72 72 72 71 71 69 70 71 72 72 72 71 70 71 69 68 69 71 71 71 71 70 70 69 70 69 68 69 68 67 67 67 71 72 72 72 73 72
68 68 70 70 70 71 70 71 70 71 69 69 69 70 72 72 72 71 70 70 69 70 70 70 70 70 69 68 69 69 70 70 70 70 69 67 67 66 71 72 73 72 72
68 69 70 71 70 71 71 71 71 70 69 67 67 66 69 71 72 71 69 69 71 69 70 70 70 70 69 69 69 69 70 69 69 70 69 68 67 69 69 71 73 73 71
68 69 70 70 71 71 70 71 70 69 68 68 68 66 68 69 70 71 69 70 71 70 70 70 70 71 70 70 69 69 70 69 69 69 69 69 68 69 68 69 68 68 71
69 69 69 70 71 70 70 68 67 67 69 69 69 71 71 71 71 72 69 71 71 70 69 70 70 70 69 70 69 69 69 70 70 70 69 70 69 67 67 68 66 66 66
68 69 70 70 70 70 69 69 65 67 69 69 69 70 71 71 72 71 71 70 71 69 70 70 70 69 69 69 67 67 65 66 69 70 69 69 69 69 68 67 67 66 64
68 69 70 70 70 70 69 68 67 69 69 68 69 69 70 71 71 71 71 71 70 70 68 70 70 69 68 69 69 67 64 61 66 69 69 69 69 69 68 67 66 66 65
67 69 69 70 70 70 70 67 67 63 64 65 66 67 69 70 71 71 71 71 71 69 68 70 70 70 70 68 69 69 69 67 64 64 68 69 70 69 67 68 67 66 65
66 67 68 70 70 69 69 68 67 66 65 66 66 68 70 70 71 71 71 71 71 70 69 69 70 70 69 68 68 69 69 67 67 65 64 67 69 69 69 68 67 67 66
65 66 67 69 70 69 69 68 68 67 67 66 67 66 67 68 69 71 71 71 71 70 70 70 70 70 70 69 69 69 68 67 66 66 65 65 66 67 69 69 68 68 67